Hourly Weather Ludwinowo

Today, 18 May, Tuesday

Time Temperature Precipitation Wind Pressure Humidity
00:00 +9°C° 0 mm 2 mps 742 mmHg 92%
01:00 +9°C° 0 mm 3 mps 742 mmHg 94%
02:00 +9°C° 0 mm 3 mps 742 mmHg 95%
03:00 +8°C° 0 mm 4 mps 742 mmHg 95%
04:00 +7°C° 0 mm 4 mps 742 mmHg 96%
05:00 +8°C° 0 mm 5 mps 743 mmHg 94%
06:00 +9°C° 0 mm 5 mps 743 mmHg 93%
07:00 +9°C° 0 mm 5 mps 743 mmHg 91%
08:00 +10°C° 0 mm 5 mps 744 mmHg 88%
09:00 +12°C° 0 mm 5 mps 744 mmHg 84%
10:00 +13°C° 0 mm 5 mps 744 mmHg 80%
11:00 +13°C° 0.5 mm 6 mps 744 mmHg 80%
12:00 +14°C° 0.5 mm 6 mps 744 mmHg 79%
13:00 +14°C° 0.5 mm 6 mps 745 mmHg 78%
14:00 +14°C° 0.5 mm 6 mps 745 mmHg 78%
15:00 +14°C° 0.5 mm 6 mps 745 mmHg 79%
16:00 +14°C° 0.5 mm 6 mps 745 mmHg 79%
17:00 +13°C° 0.3 mm 5 mps 745 mmHg 81%
18:00 +12°C° 0.3 mm 5 mps 745 mmHg 84%
19:00 +11°C° 0.3 mm 4 mps 745 mmHg 87%
20:00 +10°C° 0 mm 4 mps 745 mmHg 89%
21:00 +8°C° 0 mm 4 mps 746 mmHg 92%
22:00 +9°C° 0 mm 3 mps 746 mmHg 94%
23:00 +8°C° 0 mm 3 mps 746 mmHg 95%

Tomorrow, 19 May, Wednesday

Time Temperature Precipitation Wind Pressure Humidity
00:00 +8°C° 0 mm 3 mps 746 mmHg 95%
01:00 +7°C° 0 mm 3 mps 746 mmHg 96%
02:00 +7°C° 0 mm 3 mps 746 mmHg 96%
03:00 +7°C° 0 mm 3 mps 746 mmHg 96%
04:00 +7°C° 0 mm 3 mps 747 mmHg 96%
05:00 +8°C° 0 mm 3 mps 747 mmHg 93%
06:00 +9°C° 0 mm 3 mps 747 mmHg 90%
07:00 +10°C° 0 mm 3 mps 747 mmHg 87%
08:00 +11°C° 0.4 mm 4 mps 747 mmHg 83%
09:00 +12°C° 0.4 mm 4 mps 747 mmHg 79%
10:00 +13°C° 0.4 mm 4 mps 747 mmHg 75%
11:00 +13°C° 0.7 mm 4 mps 747 mmHg 76%
12:00 +13°C° 0.7 mm 4 mps 747 mmHg 77%
13:00 +13°C° 0.7 mm 4 mps 747 mmHg 78%
14:00 +13°C° 0.3 mm 4 mps 747 mmHg 74%
15:00 +14°C° 0.3 mm 4 mps 747 mmHg 71%
16:00 +14°C° 0.3 mm 4 mps 747 mmHg 67%
17:00 +13°C° 0.3 mm 3 mps 747 mmHg 73%
18:00 +12°C° 0.3 mm 3 mps 748 mmHg 78%
19:00 +12°C° 0.3 mm 2 mps 748 mmHg 84%
20:00 +10°C° 0 mm 2 mps 748 mmHg 85%
21:00 +9°C° 0 mm 2 mps 748 mmHg 87%
22:00 +9°C° 0 mm 1 mps 749 mmHg 88%
23:00 +8°C° 0 mm 2 mps 749 mmHg 89%

Day after tomorrow, 20 May, Thursday

Time Temperature Precipitation Wind Pressure Humidity
00:00 +7°C° 0 mm 2 mps 749 mmHg 89%
01:00 +7°C° 0 mm 2 mps 749 mmHg 90%
02:00 +7°C° 0 mm 2 mps 749 mmHg 91%
03:00 +6°C° 0 mm 2 mps 749 mmHg 91%
04:00 +6°C° 0 mm 2 mps 749 mmHg 92%
05:00 +7°C° 0 mm 2 mps 750 mmHg 89%
06:00 +9°C° 0 mm 2 mps 750 mmHg 87%
07:00 +10°C° 0 mm 2 mps 750 mmHg 84%
08:00 +11°C° 0.1 mm 3 mps 750 mmHg 80%
09:00 +13°C° 0.1 mm 3 mps 750 mmHg 75%
10:00 +14°C° 0.1 mm 3 mps 750 mmHg 70%
11:00 +14°C° 0.5 mm 4 mps 751 mmHg 72%
12:00 +14°C° 0.5 mm 4 mps 751 mmHg 74%
13:00 +13°C° 0.5 mm 4 mps 751 mmHg 75%
14:00 +14°C° 0.2 mm 4 mps 751 mmHg 73%
15:00 +14°C° 0.2 mm 3 mps 751 mmHg 71%
16:00 +14°C° 0.2 mm 3 mps 751 mmHg 69%
17:00 +13°C° 0.1 mm 3 mps 751 mmHg 71%
18:00 +13°C° 0.1 mm 3 mps 751 mmHg 73%
19:00 +13°C° 0.1 mm 2 mps 751 mmHg 76%
20:00 +12°C° 0 mm 2 mps 752 mmHg 79%
21:00 +9°C° 0 mm 2 mps 752 mmHg 82%
22:00 +8°C° 0 mm 2 mps 752 mmHg 85%
23:00 +7°C° 0 mm 2 mps 752 mmHg 87%

21 May, Friday

Time Temperature Precipitation Wind Pressure Humidity
00:00 +7°C° 0 mm 2 mps 752 mmHg 88%
01:00 +6°C° 0 mm 2 mps 752 mmHg 89%
02:00 +6°C° 0 mm 2 mps 752 mmHg 90%
03:00 +6°C° 0 mm 2 mps 752 mmHg 90%
04:00 +6°C° 0 mm 2 mps 752 mmHg 91%
05:00 +7°C° 0 mm 3 mps 751 mmHg 87%
06:00 +9°C° 0 mm 3 mps 751 mmHg 83%
07:00 +11°C° 0 mm 4 mps 751 mmHg 78%
08:00 +12°C° 0 mm 4 mps 751 mmHg 72%
09:00 +14°C° 0 mm 5 mps 750 mmHg 65%
10:00 +15°C° 0 mm 5 mps 750 mmHg 58%
11:00 +16°C° 0 mm 5 mps 749 mmHg 56%
12:00 +16°C° 0 mm 6 mps 749 mmHg 55%
13:00 +17°C° 0 mm 6 mps 748 mmHg 53%
14:00 +17°C° 0 mm 5 mps 748 mmHg 56%
15:00 +17°C° 0 mm 5 mps 747 mmHg 60%
16:00 +17°C° 0 mm 5 mps 746 mmHg 63%
17:00 +15°C° 0.2 mm 4 mps 746 mmHg 70%
18:00 +14°C° 0.2 mm 3 mps 746 mmHg 76%
19:00 +13°C° 0.2 mm 3 mps 745 mmHg 82%
20:00 +13°C° 0.1 mm 2 mps 745 mmHg 85%
21:00 +13°C° 0.1 mm 2 mps 745 mmHg 87%
22:00 +12°C° 0.1 mm 2 mps 745 mmHg 89%
23:00 +12°C° 0 mm 2 mps 745 mmHg 88%

22 May, Saturday

Time Temperature Precipitation Wind Pressure Humidity
00:00 +12°C° 0 mm 2 mps 745 mmHg 87%
01:00 +12°C° 0 mm 2 mps 744 mmHg 86%
02:00 +12°C° 0 mm 2 mps 744 mmHg 86%
03:00 +12°C° 0 mm 2 mps 744 mmHg 85%
04:00 +10°C° 0 mm 2 mps 743 mmHg 85%
05:00 +11°C° 0 mm 3 mps 743 mmHg 83%
06:00 +12°C° 0 mm 3 mps 743 mmHg 81%
07:00 +13°C° 0 mm 3 mps 743 mmHg 80%
08:00 +14°C° 0 mm 4 mps 743 mmHg 75%
09:00 +15°C° 0 mm 4 mps 743 mmHg 70%
10:00 +17°C° 0 mm 4 mps 742 mmHg 65%
11:00 +15°C° 0.3 mm 4 mps 742 mmHg 70%
12:00 +15°C° 0.3 mm 4 mps 742 mmHg 75%
13:00 +14°C° 0.3 mm 4 mps 742 mmHg 80%
14:00 +13°C° 1.3 mm 4 mps 742 mmHg 84%
15:00 +12°C° 1.3 mm 3 mps 742 mmHg 87%
16:00 +11°C° 1.3 mm 3 mps 743 mmHg 91%
17:00 +11°C° 0 mm 3 mps 743 mmHg 90%
18:00 +11°C° 0 mm 3 mps 743 mmHg 89%
19:00 +11°C° 0 mm 3 mps 743 mmHg 88%
20:00 +11°C° 0 mm 3 mps 743 mmHg 87%
21:00 +10°C° 0 mm 4 mps 744 mmHg 87%
22:00 +10°C° 0 mm 4 mps 744 mmHg 87%
23:00 +8°C° 0 mm 4 mps 744 mmHg 88%

23 May, Sunday

Time Temperature Precipitation Wind Pressure Humidity
00:00 +7°C° 0 mm 4 mps 744 mmHg 89%
01:00 +8°C° 0 mm 3 mps 745 mmHg 91%
02:00 +7°C° 0 mm 3 mps 745 mmHg 92%
03:00 +7°C° 0 mm 3 mps 745 mmHg 93%
04:00 +7°C° 0 mm 3 mps 745 mmHg 94%
05:00 +8°C° 0 mm 3 mps 745 mmHg 92%
06:00 +8°C° 0 mm 3 mps 746 mmHg 90%
07:00 +8°C° 0 mm 4 mps 746 mmHg 88%
08:00 +11°C° 0.2 mm 4 mps 746 mmHg 82%
09:00 +12°C° 0.2 mm 4 mps 746 mmHg 77%
10:00 +14°C° 0.2 mm 5 mps 747 mmHg 71%
11:00 +13°C° 0.4 mm 5 mps 747 mmHg 73%
12:00 +13°C° 0.4 mm 5 mps 747 mmHg 75%
13:00 +13°C° 0.4 mm 5 mps 747 mmHg 77%
14:00 +13°C° 0.4 mm 5 mps 748 mmHg 75%
15:00 +13°C° 0.4 mm 5 mps 748 mmHg 73%
16:00 +14°C° 0.4 mm 6 mps 748 mmHg 72%
17:00 +12°C° 0.1 mm 5 mps 748 mmHg 73%
18:00 +11°C° 0.1 mm 4 mps 749 mmHg 74%
19:00 +10°C° 0.1 mm 4 mps 749 mmHg 75%
20:00 +10°C° 0 mm 4 mps 750 mmHg 75%
21:00 +8°C° 0 mm 4 mps 750 mmHg 75%
22:00 +8°C° 0 mm 4 mps 751 mmHg 74%
23:00 +8°C° 0 mm 4 mps 751 mmHg 73%
Show more

We Need Your Consent

Meteoprog and our Service Providers may store and access personal data such as cookies, device identifiers or other similar technologies on your device and process such data to personalise content and ads, as well as provide social media features and to analyse the traffic.

  • Store and/or access information on your device

    Cookies, device identifiers or other information can be stored or accessed on your device for the purposes indicated above.

  • Personalised ads and content, ad and content measurement, audience insights, and products development

    Ads and content can be personalised based on a profile. More data can be added to better personalise ads and content. Ad and content performance can be measured. Insights about the audience who saw the ads and content can be derived. Such data can be used to develop or improve user’s experience, systems and software.

By clicking ‘I Agree’ you will allow the use of indicated cookies, device identifiers, web beacons or other similar technologies. Your settings can be changed in the browser on your device.

For certain purposes, legitimate interests may be relied on, rather than consent. You can read more about this in our Privacy and Cookie Policy.